Date,TemperatureHighF,TemperatureAvgF,TemperatureLowF,DewpointHighF,DewpointAvgF,DewpointLowF,HumidityHigh,HumidityAvg,HumidityLow,PressureMaxIn,PressureMinIn,WindSpeedMaxMPH,WindSpeedAvgMPH,GustSpeedMaxMPH,PrecipitationSumIn
2013-2-1,35,27,17,6,-1,-5,45,31,23,30.29,29.82,14,5,14,0.00
2013-2-2,32,23,12,10,2,-1,64,42,28,30.41,30.20,10,2,10,0.00
2013-2-3,35,25,16,16,8,2,74,50,31,30.20,29.88,7,1,7,0.00
2013-2-4,34,25,15,14,3,-5,74,41,25,30.11,29.91,17,4,17,0.00
2013-2-5,29,26,22,16,8,-1,64,48,36,30.14,30.05,5,0,5,0.00
2013-2-6,41,32,24,18,9,-6,67,40,26,30.47,30.05,13,4,13,0.00
2013-2-7,24,22,21,-4,-5,-7,33,29,27,30.53,30.47,6,3,6,0.00
2013-2-8,33,30,23,28,24,18,91,79,58,30.35,29.67,17,4,17,0.00
2013-2-9,29,23,15,24,10,-8,91,62,30,30.41,29.73,20,6,20,0.00
2013-2-10,39,18,-1,5,-7,-23,49,33,21,30.58,30.41,10,1,10,0.00
2013-2-11,45,34,14,40,26,-1,86,72,49,30.50,29.79,8,1,8,0.44
2013-2-12,45,36,28,34,19,14,87,52,31,30.05,29.82,10,2,10,0.00
2013-2-13,45,32,22,31,17,12,83,56,30,30.05,29.85,8,1,8,0.00
2013-2-14,46,34,24,29,16,10,82,51,28,30.14,29.88,8,1,8,0.00
2013-2-15,44,34,31,25,21,18,74,60,40,30.08,30.05,4,0,4,0.00
2013-2-16,41,35,28,29,19,9,81,55,34,30.08,29.85,9,2,9,0.00
2013-2-17,32,24,16,18,0,-7,66,36,26,29.93,29.64,21,8,21,0.00
2013-2-18,33,23,18,6,2,-3,57,42,25,30.35,30.23,10,2,10,0.00
2013-2-19,50,34,17,40,22,6,87,63,32,30.35,29.76,10,2,10,0.24
2013-2-20,39,31,22,34,10,-1,87,44,26,30.02,29.76,16,6,16,0.00
2013-2-21,33,25,20,7,4,0,49,40,31,30.41,30.02,22,6,22,0.00
2013-2-22,42,26,17,18,10,4,67,51,30,30.53,30.41,6,1,6,0.00
2013-2-23,40,36,31,30,25,17,84,66,54,30.44,29.96,7,2,7,0.24
2013-2-24,43,36,32,36,30,26,90,77,57,30.05,29.85,9,2,9,0.36
2013-2-25,48,35,24,28,20,16,84,57,30,30.38,30.05,8,1,8,0.04
2013-2-26,47,38,30,36,22,15,82,56,32,30.47,30.20,6,1,6,0.00
2013-2-27,44,39,34,42,37,25,95,91,69,30.20,29.70,15,3,15,1.56
2013-2-28,37,36,34,36,34,33,95,94,94,29.76,29.73,6,0,6,0.00